START_TIME,STEP,MOV.,H8,t_acc.,H43,t_acc.,M25,t_acc.,H9,t_acc.
1979-07-11 18:00:29.850 ,0,1,0.,12.0,0.,12.0,0.,12.0,0.,12.0
1979-07-11 18:00:41.850 ,0,1,1.,12.0,0.,12.0,0.,12.0,0.,12.0
1979-07-11 18:00:53.850 ,4,1,0.,12.0,0.,12.0,0.,12.0,0.,12.0
1979-07-11 18:01:05.850 ,4,1,0.,12.0,0.,12.0,0.,12.0,0.,12.0
1979-07-11 18:01:17.850 ,7,1,0.,12.0,0.,12.0,0.,12.0,0.,12.0
1979-07-11 18:01:29.850 ,7,1,0.,12.0,0.,12.0,0.,12.0,0.,12.0
1979-07-11 18:01:41.850 ,3,1,0.,12.0,0.,12.0,0.,12.0,0.,12.0
1979-07-11 18:01:53.850 ,3,1,0.,12.0,0.,12.0,0.,12.0,0.,12.0
1979-07-11 18:02:05.850 ,0,1,0.,12.0,0.,12.0,0.,12.0,0.,12.0
1979-07-11 18:02:17.850 ,0,1,1.,12.0,0.,12.0,0.,12.0,0.,12.0
1979-07-11 18:02:29.850 ,4,1,0.,12.0,0.,12.0,0.,12.0,0.,12.0
1979-07-11 18:02:41.850 ,4,1,0.,12.0,0.,12.0,0.,12.0,0.,12.0
1979-07-11 18:02:53.850 ,7,1,0.,12.0,0.,12.0,0.,12.0,0.,12.0
1979-07-11 18:03:05.850 ,7,1,0.,12.0,0.,12.0,0.,12.0,0.,12.0
1979-07-11 18:03:17.850 ,3,1,1.,12.0,0.,12.0,0.,12.0,0.,12.0
1979-07-11 18:03:29.850 ,3,1,1.,12.0,0.,12.0,0.,12.0,0.,12.0
1979-07-11 18:03:41.850 ,0,1,0.,12.0,0.,12.0,0.,12.0,0.,12.0
1979-07-11 18:03:53.850 ,0,1,2.,12.0,0.,12.0,0.,12.0,0.,12.0
1979-07-11 18:04:05.850 ,4,1,0.,12.0,0.,12.0,0.,12.0,0.,12.0
1979-07-11 18:04:17.850 ,4,1,2.,12.0,0.,12.0,0.,12.0,0.,12.0
1979-07-11 18:04:29.850 ,7,1,0.,12.0,0.,12.0,0.,12.0,0.,12.0
1979-07-11 18:04:41.850 ,7,1,0.,12.0,0.,12.0,0.,12.0,0.,12.0
1979-07-11 18:04:53.850 ,3,1,0.,12.0,0.,12.0,0.,12.0,0.,12.0
1979-07-11 18:05:05.850 ,3,1,1.,12.0,0.,12.0,0.,12.0,0.,12.0
1979-07-11 18:05:17.850 ,0,1,0.,12.0,0.,12.0,0.,12.0,0.,12.0
1979-07-11 18:05:29.850 ,0,1,0.,12.0,0.,12.0,0.,12.0,0.,12.0
1979-07-11 18:05:41.850 ,0,0,0.,12.0,0.,12.0,0.,12.0,0.,12.0
1979-07-11 18:05:53.850 ,0,0,1.,12.0,0.,12.0,0.,12.0,0.,12.0
1979-07-11 18:06:05.850 ,0,0,0.,12.0,0.,12.0,0.,12.0,0.,12.0
1979-07-11 18:06:17.850 ,0,0,0.,12.0,0.,12.0,0.,12.0,0.,12.0
1979-07-11 18:06:29.850 ,5,0,0.,12.0,0.,12.0,0.,12.0,0.,12.0
1979-07-11 18:06:41.850 ,5,0,0.,12.0,0.,12.0,0.,12.0,0.,12.0
1979-07-11 18:06:53.850 ,5,0,0.,12.0,0.,12.0,0.,12.0,0.,12.0
1979-07-11 18:07:05.850 ,5,0,0.,12.0,0.,12.0,0.,12.0,0.,12.0
1979-07-11 18:07:17.850 ,4,0,1.,12.0,0.,12.0,0.,12.0,0.,12.0
1979-07-11 18:07:29.850 ,4,0,0.,12.0,0.,12.0,0.,12.0,0.,12.0
1979-07-11 18:07:41.850 ,4,0,0.,12.0,0.,12.0,0.,12.0,0.,12.0
1979-07-11 18:07:53.850 ,4,0,0.,12.0,0.,12.0,0.,12.0,0.,12.0
1979-07-11 18:08:05.850 ,0,0,0.,12.0,0.,12.0,0.,12.0,0.,12.0
1979-07-11 18:08:17.850 ,0,0,0.,12.0,0.,12.0,0.,12.0,0.,12.0
1979-07-11 18:08:29.850 ,0,0,0.,12.0,0.,12.0,0.,12.0,0.,12.0
1979-07-11 18:08:41.850 ,0,0,0.,12.0,0.,12.0,0.,12.0,0.,12.0
1979-07-11 18:09:05.240 ,0,0,,0,,0,,0,,0
1979-07-11 18:09:17.240 ,0,0,1.,12.0,0.,12.0,0.,12.0,0.,12.0
1979-07-11 18:09:17.840 ,0,0,1.,12.0,0.,12.0,0.,12.0,0.,12.0
1979-07-11 18:09:29.840 ,0,0,1.,12.0,0.,12.0,0.,12.0,0.,12.0
1979-07-11 18:09:41.840 ,1,0,0.,12.0,0.,12.0,0.,12.0,0.,12.0
1979-07-11 18:09:53.840 ,1,0,0.,12.0,0.,12.0,0.,12.0,0.,12.0
1979-07-11 18:10:05.840 ,1,0,0.,12.0,0.,12.0,0.,12.0,0.,12.0
1979-07-11 18:10:17.840 ,1,0,0.,12.0,0.,12.0,0.,12.0,0.,12.0
1979-07-11 18:10:29.840 ,0,0,0.,12.0,0.,12.0,0.,12.0,0.,12.0
1979-07-11 18:10:41.840 ,0,0,0.,12.0,0.,12.0,0.,12.0,0.,12.0
1979-07-11 18:10:53.840 ,0,0,0.,12.0,0.,12.0,0.,12.0,0.,12.0
1979-07-11 18:11:05.840 ,0,0,1.,12.0,0.,12.0,0.,12.0,0.,12.0
1979-07-11 18:11:17.840 ,0,0,0.,12.0,0.,12.0,0.,12.0,0.,12.0
1979-07-11 18:11:29.840 ,0,0,0.,12.0,0.,12.0,0.,12.0,0.,12.0
1979-07-11 18:11:41.840 ,0,0,0.,12.0,0.,12.0,0.,12.0,0.,12.0
1979-07-11 18:11:53.840 ,0,0,0.,12.0,0.,12.0,0.,12.0,0.,12.0
1979-07-11 18:12:05.840 ,1,0,1.,12.0,0.,12.0,0.,12.0,0.,12.0
1979-07-11 18:12:17.840 ,1,0,0.,12.0,0.,12.0,0.,12.0,0.,12.0
1979-07-11 18:12:29.840 ,1,0,1.,12.0,0.,12.0,0.,12.0,0.,12.0
1979-07-11 18:12:41.840 ,1,0,0.,12.0,0.,12.0,0.,12.0,0.,12.0
1979-07-11 18:12:53.840 ,2,0,0.,12.0,0.,12.0,0.,12.0,0.,12.0
1979-07-11 18:13:05.840 ,2,0,0.,12.0,0.,12.0,0.,12.0,0.,12.0
1979-07-11 18:13:17.840 ,2,0,0.,12.0,0.,12.0,0.,12.0,0.,12.0
1979-07-11 18:13:29.840 ,2,0,0.,12.0,0.,12.0,0.,12.0,0.,12.0
1979-07-11 18:13:41.840 ,3,0,0.,12.0,0.,12.0,0.,12.0,0.,12.0
1979-07-11 18:13:53.840 ,3,0,0.,12.0,0.,12.0,0.,12.0,0.,12.0
1979-07-11 18:14:05.840 ,3,0,0.,12.0,0.,12.0,0.,12.0,0.,12.0
1979-07-11 18:14:17.840 ,3,0,0.,12.0,0.,12.0,0.,12.0,0.,12.0
1979-07-11 18:14:29.840 ,4,0,1.,12.0,0.,12.0,0.,12.0,0.,12.0
1979-07-11 18:14:41.840 ,4,0,0.,12.0,0.,12.0,0.,12.0,0.,12.0
1979-07-11 18:14:53.840 ,4,0,0.,12.0,0.,12.0,0.,12.0,0.,12.0
1979-07-11 18:15:05.840 ,4,0,0.,12.0,0.,12.0,0.,12.0,0.,12.0
1979-07-11 18:15:17.840 ,5,0,0.,12.0,0.,12.0,0.,12.0,0.,12.0
1979-07-11 18:15:29.840 ,5,0,0.,12.0,0.,12.0,0.,12.0,0.,12.0
1979-07-11 18:15:41.840 ,5,0,0.,12.0,0.,12.0,0.,12.0,0.,12.0
1979-07-11 18:15:53.840 ,5,0,0.,12.0,0.,12.0,0.,12.0,0.,12.0
1979-07-11 18:16:05.840 ,6,0,0.,12.0,0.,12.0,0.,12.0,0.,12.0
1979-07-11 18:16:17.840 ,6,0,1.,12.0,0.,12.0,0.,12.0,0.,12.0
1979-07-11 18:16:29.840 ,6,0,0.,12.0,0.,12.0,0.,12.0,0.,12.0
1979-07-11 18:16:41.840 ,6,0,0.,12.0,0.,12.0,0.,12.0,0.,12.0
1979-07-11 18:16:53.840 ,7,0,0.,12.0,0.,12.0,0.,12.0,0.,12.0
1979-07-11 18:17:05.840 ,7,0,0.,12.0,0.,12.0,0.,12.0,0.,12.0
1979-07-11 18:17:17.840 ,7,0,0.,12.0,0.,12.0,0.,12.0,0.,12.0
1979-07-11 18:17:29.840 ,7,0,0.,12.0,0.,12.0,0.,12.0,0.,12.0
1979-07-11 18:17:41.840 ,7,0,0.,12.0,0.,12.0,0.,12.0,0.,12.0
1979-07-11 18:17:53.840 ,7,0,0.,12.0,0.,12.0,0.,12.0,0.,12.0
1979-07-11 18:18:05.840 ,7,0,0.,12.0,0.,12.0,0.,12.0,0.,12.0
1979-07-11 18:18:17.840 ,7,0,0.,12.0,0.,12.0,0.,12.0,0.,12.0
1979-07-11 18:18:29.840 ,6,0,0.,12.0,0.,12.0,0.,12.0,0.,12.0
1979-07-11 18:18:41.840 ,6,0,0.,12.0,0.,12.0,0.,12.0,0.,12.0
1979-07-11 18:18:53.840 ,6,0,0.,12.0,0.,12.0,0.,12.0,0.,12.0
1979-07-11 18:19:05.840 ,6,0,0.,12.0,0.,12.0,0.,12.0,0.,12.0
1979-07-11 18:19:17.840 ,5,0,1.,12.0,0.,12.0,0.,12.0,0.,12.0
1979-07-11 18:19:29.840 ,5,0,0.,12.0,0.,12.0,0.,12.0,0.,12.0
1979-07-11 18:19:41.840 ,5,0,0.,12.0,0.,12.0,0.,12.0,0.,12.0
1979-07-11 18:19:53.840 ,5,0,0.,12.0,0.,12.0,0.,12.0,0.,12.0
1979-07-11 18:20:05.840 ,4,0,0.,12.0,0.,12.0,0.,12.0,0.,12.0
1979-07-11 18:20:17.840 ,4,0,0.,12.0,0.,12.0,0.,12.0,0.,12.0
1979-07-11 18:20:29.840 ,4,0,0.,12.0,0.,12.0,0.,12.0,0.,12.0
1979-07-11 18:20:41.840 ,4,0,0.,12.0,0.,12.0,0.,12.0,0.,12.0
1979-07-11 18:20:53.840 ,3,0,0.,12.0,0.,12.0,0.,12.0,0.,12.0
1979-07-11 18:21:05.840 ,3,0,0.,12.0,0.,12.0,0.,12.0,0.,12.0
1979-07-11 18:21:17.840 ,3,0,0.,12.0,0.,12.0,0.,12.0,0.,12.0
1979-07-11 18:21:29.840 ,3,0,1.,12.0,0.,12.0,0.,12.0,0.,12.0
1979-07-11 18:21:41.840 ,2,0,0.,12.0,0.,12.0,0.,12.0,0.,12.0
1979-07-11 18:21:53.840 ,2,0,0.,12.0,0.,12.0,0.,12.0,0.,12.0
1979-07-11 18:22:05.840 ,2,0,0.,12.0,0.,12.0,0.,12.0,0.,12.0
1979-07-11 18:22:17.840 ,2,0,0.,12.0,0.,12.0,0.,12.0,0.,12.0
1979-07-11 18:22:29.840 ,1,0,0.,12.0,0.,12.0,0.,12.0,0.,12.0
1979-07-11 18:22:41.840 ,1,0,0.,12.0,0.,12.0,0.,12.0,0.,12.0
1979-07-11 18:22:53.840 ,1,0,0.,12.0,0.,12.0,0.,12.0,0.,12.0
1979-07-11 18:23:05.840 ,1,0,0.,12.0,0.,12.0,0.,12.0,0.,12.0
1979-07-11 18:23:17.840 ,0,0,0.,12.0,0.,12.0,0.,12.0,0.,12.0
1979-07-11 18:23:29.840 ,0,0,0.,12.0,0.,12.0,0.,12.0,0.,12.0
1979-07-11 18:23:41.840 ,0,0,0.,12.0,0.,12.0,0.,12.0,0.,12.0
1979-07-11 18:23:53.840 ,0,0,0.,12.0,0.,12.0,0.,12.0,0.,12.0
1979-07-11 18:24:05.840 ,0,0,0.,12.0,0.,12.0,0.,12.0,0.,12.0
1979-07-11 18:24:17.840 ,0,0,1.,12.0,0.,12.0,0.,12.0,0.,12.0
1979-07-11 18:24:29.840 ,0,0,1.,12.0,0.,12.0,0.,12.0,0.,12.0
1979-07-11 18:24:41.840 ,0,0,0.,12.0,0.,12.0,0.,12.0,0.,12.0
1979-07-11 18:24:53.840 ,1,0,0.,12.0,0.,12.0,0.,12.0,0.,12.0
1979-07-11 18:25:05.840 ,1,0,0.,12.0,0.,12.0,0.,12.0,0.,12.0
1979-07-11 18:25:17.840 ,1,0,1.,12.0,0.,12.0,0.,12.0,0.,12.0
1979-07-11 18:25:29.840 ,1,0,0.,12.0,0.,12.0,0.,12.0,0.,12.0
1979-07-11 18:25:41.840 ,2,0,0.,12.0,0.,12.0,0.,12.0,0.,12.0
1979-07-11 18:25:53.840 ,2,0,0.,12.0,0.,12.0,0.,12.0,0.,12.0
1979-07-11 18:26:05.840 ,2,0,0.,12.0,0.,12.0,0.,12.0,0.,12.0
1979-07-11 18:26:17.840 ,2,0,0.,12.0,0.,12.0,0.,12.0,0.,12.0
1979-07-11 18:26:29.840 ,3,0,0.,12.0,0.,12.0,0.,12.0,0.,12.0
1979-07-11 18:26:41.840 ,3,0,0.,12.0,0.,12.0,0.,12.0,0.,12.0
1979-07-11 18:26:53.840 ,3,0,1.,12.0,0.,12.0,0.,12.0,0.,12.0
1979-07-11 18:27:05.840 ,3,0,0.,12.0,0.,12.0,0.,12.0,0.,12.0
1979-07-11 18:27:17.840 ,4,0,0.,12.0,0.,12.0,0.,12.0,0.,12.0
1979-07-11 18:27:29.840 ,4,0,0.,12.0,0.,12.0,0.,12.0,0.,12.0
1979-07-11 18:27:41.840 ,4,0,0.,12.0,0.,12.0,0.,12.0,0.,12.0
1979-07-11 18:27:53.840 ,4,0,0.,12.0,0.,12.0,0.,12.0,0.,12.0
1979-07-11 18:28:05.840 ,0,0,,0,,0,,0,,0
1979-07-11 18:28:17.840 ,0,0,,0,,0,,0,,0
1979-07-11 18:28:29.840 ,0,0,,0,,0,,0,,0
1979-07-11 18:28:41.840 ,0,0,,0,,0,,0,,0
1979-07-11 18:28:29.840 ,5,0,0.,12.0,0.,12.0,0.,12.0,0.,12.0
1979-07-11 18:28:41.840 ,5,0,0.,12.0,0.,12.0,0.,12.0,0.,12.0
1979-07-11 18:28:53.840 ,6,0,0.,12.0,0.,12.0,0.,12.0,0.,12.0
1979-07-11 18:29:05.840 ,6,0,0.,12.0,0.,12.0,0.,12.0,0.,12.0
1979-07-11 18:29:17.840 ,6,0,0.,12.0,0.,12.0,0.,12.0,0.,12.0
1979-07-11 18:29:29.840 ,6,0,0.,12.0,0.,12.0,0.,12.0,0.,12.0
1979-07-11 18:29:41.840 ,7,0,0.,12.0,0.,12.0,0.,12.0,0.,12.0
1979-07-11 18:29:53.840 ,7,0,0.,12.0,0.,12.0,0.,12.0,0.,12.0
1979-07-11 18:30:05.840 ,7,0,0.,12.0,0.,12.0,0.,12.0,0.,12.0
1979-07-11 18:30:17.840 ,7,0,0.,12.0,0.,12.0,0.,12.0,0.,12.0
1979-07-11 18:30:29.840 ,7,0,0.,12.0,0.,12.0,0.,12.0,0.,12.0
1979-07-11 18:30:41.840 ,7,0,0.,12.0,0.,12.0,0.,12.0,0.,12.0
1979-07-11 18:30:53.840 ,7,0,0.,12.0,0.,12.0,0.,12.0,0.,12.0
1979-07-11 18:31:05.840 ,7,0,0.,12.0,0.,12.0,0.,12.0,0.,12.0
1979-07-11 18:31:17.840 ,6,0,0.,12.0,0.,12.0,0.,12.0,0.,12.0
1979-07-11 18:31:29.840 ,6,0,0.,12.0,0.,12.0,0.,12.0,0.,12.0
1979-07-11 18:31:41.840 ,6,0,0.,12.0,0.,12.0,0.,12.0,0.,12.0
1979-07-11 18:31:53.840 ,6,0,0.,12.0,0.,12.0,0.,12.0,0.,12.0
1979-07-11 18:32:05.840 ,5,0,0.,12.0,0.,12.0,0.,12.0,0.,12.0
1979-07-11 18:32:17.840 ,5,0,0.,12.0,0.,12.0,0.,12.0,0.,12.0
1979-07-11 18:32:29.840 ,5,0,1.,12.0,0.,12.0,0.,12.0,0.,12.0
1979-07-11 18:32:41.840 ,5,0,2.,12.0,0.,12.0,0.,12.0,0.,12.0
1979-07-11 18:32:53.840 ,4,0,1.,12.0,0.,12.0,0.,12.0,0.,12.0
1979-07-11 18:33:05.840 ,4,0,0.,12.0,0.,12.0,0.,12.0,0.,12.0
1979-07-11 18:33:17.840 ,4,0,0.,12.0,0.,12.0,0.,12.0,0.,12.0
1979-07-11 18:33:29.840 ,4,0,1.,12.0,0.,12.0,0.,12.0,0.,12.0
1979-07-11 18:33:41.840 ,3,0,0.,12.0,0.,12.0,0.,12.0,0.,12.0
1979-07-11 18:33:53.840 ,3,0,0.,12.0,0.,12.0,0.,12.0,0.,12.0
1979-07-11 18:34:05.840 ,3,0,0.,12.0,0.,12.0,0.,12.0,0.,12.0
1979-07-11 18:34:17.840 ,3,0,0.,12.0,0.,12.0,0.,12.0,0.,12.0
1979-07-11 18:34:29.840 ,2,0,0.,12.0,0.,12.0,0.,12.0,0.,12.0
1979-07-11 18:34:41.840 ,2,0,1.,12.0,0.,12.0,0.,12.0,0.,12.0
1979-07-11 18:34:53.840 ,2,0,0.,12.0,0.,12.0,0.,12.0,0.,12.0
1979-07-11 18:35:05.840 ,2,0,0.,12.0,0.,12.0,0.,12.0,0.,12.0
1979-07-11 18:35:17.840 ,1,0,0.,12.0,0.,12.0,0.,12.0,0.,12.0
1979-07-11 18:35:29.840 ,1,0,1.,12.0,0.,12.0,0.,12.0,0.,12.0
1979-07-11 18:35:41.840 ,1,0,0.,12.0,0.,12.0,0.,12.0,0.,12.0
1979-07-11 18:35:53.840 ,1,0,0.,12.0,0.,12.0,0.,12.0,0.,12.0
1979-07-11 18:36:05.840 ,0,0,0.,12.0,0.,12.0,0.,12.0,0.,12.0
1979-07-11 18:36:17.840 ,0,0,0.,12.0,0.,12.0,0.,12.0,0.,12.0
1979-07-11 18:36:29.840 ,0,0,0.,12.0,0.,12.0,0.,12.0,0.,12.0
1979-07-11 18:36:41.840 ,0,0,0.,12.0,0.,12.0,0.,12.0,0.,12.0
1979-07-11 18:36:53.840 ,0,0,0.,12.0,0.,12.0,0.,12.0,0.,12.0
1979-07-11 18:37:05.840 ,0,0,0.,12.0,0.,12.0,0.,12.0,0.,12.0
1979-07-11 18:37:17.840 ,0,0,0.,12.0,0.,12.0,0.,12.0,0.,12.0
1979-07-11 18:37:29.840 ,0,0,0.,12.0,0.,12.0,0.,12.0,0.,12.0
1979-07-11 18:37:41.840 ,1,0,0.,12.0,0.,12.0,0.,12.0,0.,12.0
1979-07-11 18:37:53.840 ,1,0,0.,12.0,0.,12.0,0.,12.0,0.,12.0
1979-07-11 18:38:05.840 ,1,0,0.,12.0,0.,12.0,0.,12.0,0.,12.0
1979-07-11 18:38:17.840 ,1,0,0.,12.0,0.,12.0,0.,12.0,0.,12.0
1979-07-11 18:38:29.840 ,2,0,0.,12.0,0.,12.0,0.,12.0,0.,12.0
1979-07-11 18:38:41.840 ,2,0,1.,12.0,0.,12.0,0.,12.0,0.,12.0
1979-07-11 18:38:53.840 ,2,0,2.,12.0,0.,12.0,0.,12.0,0.,12.0
1979-07-11 18:39:05.840 ,2,0,1.,12.0,0.,12.0,0.,12.0,0.,12.0
1979-07-11 18:39:17.840 ,3,0,0.,12.0,0.,12.0,0.,12.0,0.,12.0
1979-07-11 18:39:29.840 ,3,0,0.,12.0,0.,12.0,0.,12.0,0.,12.0
1979-07-11 18:39:41.840 ,3,0,0.,12.0,0.,12.0,0.,12.0,0.,12.0
1979-07-11 18:39:53.840 ,3,0,1.,12.0,0.,12.0,0.,12.0,0.,12.0
1979-07-11 18:40:05.840 ,4,0,0.,12.0,0.,12.0,0.,12.0,0.,12.0
1979-07-11 18:40:17.840 ,4,0,0.,12.0,0.,12.0,0.,12.0,0.,12.0
1979-07-11 18:40:29.840 ,4,0,0.,12.0,0.,12.0,0.,12.0,0.,12.0
1979-07-11 18:40:41.840 ,4,0,0.,12.0,0.,12.0,0.,12.0,0.,12.0
1979-07-11 18:40:53.840 ,5,0,0.,12.0,0.,12.0,0.,12.0,0.,12.0
1979-07-11 18:41:05.840 ,5,0,0.,12.0,0.,12.0,0.,12.0,0.,12.0
1979-07-11 18:41:17.840 ,5,0,0.,12.0,0.,12.0,0.,12.0,0.,12.0
1979-07-11 18:41:29.840 ,5,0,0.,12.0,0.,12.0,0.,12.0,0.,12.0
1979-07-11 18:41:41.840 ,6,0,0.,12.0,0.,12.0,0.,12.0,0.,12.0
1979-07-11 18:41:53.840 ,6,0,0.,12.0,0.,12.0,0.,12.0,0.,12.0
1979-07-11 18:42:05.840 ,6,0,0.,12.0,0.,12.0,0.,12.0,0.,12.0
1979-07-11 18:42:17.840 ,6,0,0.,12.0,0.,12.0,0.,12.0,0.,12.0
1979-07-11 18:42:29.840 ,7,0,1.,12.0,0.,12.0,0.,12.0,0.,12.0
1979-07-11 18:42:41.840 ,7,0,0.,12.0,0.,12.0,0.,12.0,0.,12.0
1979-07-11 18:42:53.840 ,7,0,0.,12.0,0.,12.0,0.,12.0,0.,12.0
1979-07-11 18:43:05.840 ,7,0,0.,12.0,0.,12.0,0.,12.0,0.,12.0
1979-07-11 18:43:17.840 ,3,1,0.,12.0,0.,12.0,0.,12.0,0.,12.0
1979-07-11 18:43:29.840 ,3,1,0.,12.0,0.,12.0,0.,12.0,0.,12.0
1979-07-11 18:43:41.840 ,0,1,0.,12.0,0.,12.0,0.,12.0,0.,12.0
1979-07-11 18:43:53.840 ,0,1,0.,12.0,0.,12.0,0.,12.0,0.,12.0
1979-07-11 18:44:05.840 ,4,1,0.,12.0,0.,12.0,0.,12.0,0.,12.0
1979-07-11 18:44:17.840 ,4,1,1.,12.0,0.,12.0,0.,12.0,0.,12.0
1979-07-11 18:44:29.840 ,7,1,0.,12.0,0.,12.0,0.,12.0,0.,12.0
1979-07-11 18:44:41.840 ,7,1,0.,12.0,0.,12.0,0.,12.0,0.,12.0
1979-07-11 18:44:53.840 ,3,1,0.,12.0,0.,12.0,0.,12.0,0.,12.0
1979-07-11 18:45:05.840 ,3,1,1.,12.0,0.,12.0,0.,12.0,0.,12.0
1979-07-11 18:45:17.840 ,0,1,0.,12.0,0.,12.0,0.,12.0,0.,12.0
1979-07-11 18:45:29.840 ,0,1,0.,12.0,0.,12.0,0.,12.0,0.,12.0
1979-07-11 18:45:41.840 ,4,1,0.,12.0,0.,12.0,0.,12.0,0.,12.0
1979-07-11 18:45:53.840 ,4,1,0.,12.0,0.,12.0,0.,12.0,0.,12.0
1979-07-11 18:46:05.840 ,7,1,0.,12.0,0.,12.0,0.,12.0,0.,12.0
1979-07-11 18:46:17.840 ,7,1,1.,12.0,0.,12.0,0.,12.0,0.,12.0
1979-07-11 18:46:29.840 ,3,1,0.,12.0,0.,12.0,0.,12.0,0.,12.0
1979-07-11 18:46:41.840 ,3,1,1.,12.0,0.,12.0,0.,12.0,0.,12.0
1979-07-11 18:46:53.840 ,0,1,0.,12.0,0.,12.0,0.,12.0,0.,12.0
1979-07-11 18:47:05.840 ,0,1,0.,12.0,0.,12.0,0.,12.0,0.,12.0
1979-07-11 18:47:17.840 ,4,1,1.,12.0,0.,12.0,0.,12.0,0.,12.0
1979-07-11 18:47:29.840 ,4,1,0.,12.0,0.,12.0,0.,12.0,0.,12.0
1979-07-11 18:47:41.840 ,7,1,0.,12.0,0.,12.0,0.,12.0,0.,12.0
1979-07-11 18:47:53.840 ,7,1,0.,12.0,0.,12.0,0.,12.0,0.,12.0
1979-07-11 18:48:05.840 ,3,1,0.,12.0,0.,12.0,0.,12.0,0.,12.0
1979-07-11 18:48:17.840 ,3,1,0.,12.0,0.,12.0,0.,12.0,0.,12.0
1979-07-11 18:48:29.840 ,0,1,0.,12.0,0.,12.0,0.,12.0,0.,12.0
1979-07-11 18:48:41.840 ,0,1,0.,12.0,0.,12.0,0.,12.0,0.,12.0
1979-07-11 18:48:53.840 ,4,1,0.,12.0,0.,12.0,0.,12.0,0.,12.0
1979-07-11 18:49:05.840 ,4,1,0.,12.0,0.,12.0,0.,12.0,0.,12.0
1979-07-11 18:49:17.840 ,7,1,2.,12.0,0.,12.0,0.,12.0,0.,12.0
1979-07-11 18:49:29.840 ,7,1,0.,12.0,0.,12.0,0.,12.0,0.,12.0
1979-07-11 18:49:41.840 ,3,1,0.,12.0,0.,12.0,0.,12.0,0.,12.0
1979-07-11 18:49:53.840 ,3,1,1.,12.0,0.,12.0,0.,12.0,0.,12.0
1979-07-11 18:50:05.840 ,0,1,0.,12.0,0.,12.0,0.,12.0,0.,12.0
1979-07-11 18:50:17.840 ,0,1,0.,12.0,0.,12.0,0.,12.0,0.,12.0
1979-07-11 18:50:29.840 ,4,1,2.,12.0,0.,12.0,0.,12.0,0.,12.0
1979-07-11 18:50:41.840 ,4,1,1.,12.0,0.,12.0,0.,12.0,0.,12.0
1979-07-11 18:50:53.840 ,7,1,1.,12.0,0.,12.0,0.,12.0,0.,12.0
1979-07-11 18:51:05.840 ,7,1,0.,12.0,0.,12.0,0.,12.0,0.,12.0
1979-07-11 18:51:17.840 ,3,1,0.,12.0,0.,12.0,0.,12.0,0.,12.0
1979-07-11 18:51:29.840 ,3,1,1.,12.0,0.,12.0,0.,12.0,0.,12.0
1979-07-11 18:51:41.840 ,0,1,0.,12.0,0.,12.0,0.,12.0,0.,12.0
1979-07-11 18:51:53.840 ,0,1,0.,12.0,0.,12.0,0.,12.0,0.,12.0
1979-07-11 18:52:05.840 ,4,1,1.,12.0,0.,12.0,0.,12.0,0.,12.0
1979-07-11 18:52:17.840 ,4,1,0.,12.0,0.,12.0,0.,12.0,0.,12.0
1979-07-11 18:52:29.840 ,7,1,1.,12.0,0.,12.0,0.,12.0,0.,12.0
1979-07-11 18:52:41.840 ,7,1,0.,12.0,0.,12.0,0.,12.0,0.,12.0
1979-07-11 18:52:53.840 ,3,1,0.,12.0,0.,12.0,0.,12.0,0.,12.0
1979-07-11 18:53:05.840 ,3,1,0.,12.0,0.,12.0,0.,12.0,0.,12.0
1979-07-11 18:53:17.840 ,0,1,0.,12.0,0.,12.0,0.,12.0,0.,12.0
1979-07-11 18:53:29.840 ,0,1,1.,12.0,0.,12.0,0.,12.0,0.,12.0
1979-07-11 18:53:41.840 ,0,0,0.,12.0,0.,12.0,0.,12.0,0.,12.0
1979-07-11 18:53:53.840 ,0,0,1.,12.0,0.,12.0,0.,12.0,0.,12.0
1979-07-11 18:54:05.840 ,0,0,2.,12.0,0.,12.0,0.,12.0,0.,12.0
1979-07-11 18:54:17.840 ,0,0,1.,12.0,0.,12.0,0.,12.0,0.,12.0
1979-07-11 18:54:29.840 ,5,0,0.,12.0,0.,12.0,0.,12.0,0.,12.0
1979-07-11 18:54:41.840 ,5,0,1.,12.0,0.,12.0,0.,12.0,0.,12.0
1979-07-11 18:54:53.840 ,5,0,0.,12.0,0.,12.0,0.,12.0,0.,12.0
1979-07-11 18:55:05.840 ,5,0,0.,12.0,0.,12.0,0.,12.0,0.,12.0
1979-07-11 18:55:17.840 ,4,0,2.,12.0,0.,12.0,0.,12.0,0.,12.0
1979-07-11 18:55:29.840 ,4,0,1.,12.0,0.,12.0,0.,12.0,0.,12.0
1979-07-11 18:55:41.840 ,4,0,1.,12.0,0.,12.0,0.,12.0,0.,12.0
1979-07-11 18:55:53.840 ,4,0,0.,12.0,0.,12.0,0.,12.0,0.,12.0
1979-07-11 18:56:05.840 ,3,0,1.,12.0,0.,12.0,0.,12.0,0.,12.0
1979-07-11 18:56:17.840 ,3,0,0.,12.0,0.,12.0,0.,12.0,0.,12.0
1979-07-11 18:56:29.840 ,3,0,0.,12.0,0.,12.0,0.,12.0,0.,12.0
1979-07-11 18:56:41.840 ,3,0,1.,12.0,0.,12.0,0.,12.0,0.,12.0
1979-07-11 18:56:53.840 ,2,0,1.,12.0,0.,12.0,0.,12.0,0.,12.0
1979-07-11 18:57:05.840 ,2,0,0.,12.0,0.,12.0,0.,12.0,0.,12.0
1979-07-11 18:57:17.840 ,2,0,0.,12.0,0.,12.0,0.,12.0,0.,12.0
1979-07-11 18:57:29.840 ,2,0,1.,12.0,0.,12.0,0.,12.0,0.,12.0
1979-07-11 18:58:29.840 ,0,0,0.,12.0,0.,12.0,0.,12.0,0.,12.0
1979-07-11 18:58:41.840 ,0,0,0.,12.0,0.,12.0,0.,12.0,0.,12.0
1979-07-11 18:58:53.840 ,0,0,0.,12.0,0.,12.0,0.,12.0,0.,12.0
1979-07-11 18:59:05.840 ,0,0,1.,12.0,0.,12.0,0.,12.0,0.,12.0
1979-07-11 18:58:53.840 ,0,0,0.,12.0,0.,12.0,0.,12.0,0.,12.0
1979-07-11 18:59:05.840 ,0,0,1.,12.0,0.,12.0,0.,12.0,0.,12.0
1979-07-11 18:59:17.840 ,0,0,1.,12.0,0.,12.0,0.,12.0,0.,12.0
1979-07-11 18:59:29.840 ,0,0,0.,12.0,0.,12.0,0.,12.0,0.,12.0
1979-07-11 18:59:41.840 ,0,0,2.,12.0,0.,12.0,0.,12.0,0.,12.0
1979-07-11 18:59:53.840 ,0,0,1.,12.0,0.,12.0,0.,12.0,0.,12.0
1979-07-11 19:00:05.840 ,1,0,0.,12.0,0.,12.0,0.,12.0,0.,12.0
1979-07-11 19:00:17.840 ,1,0,0.,12.0,0.,12.0,0.,12.0,0.,12.0
1979-07-11 19:00:29.840 ,1,0,0.,12.0,0.,12.0,0.,12.0,0.,12.0
1979-07-11 19:00:41.840 ,1,0,0.,12.0,0.,12.0,0.,12.0,0.,12.0
1979-07-11 19:00:53.840 ,2,0,0.,12.0,0.,12.0,0.,12.0,0.,12.0
1979-07-11 19:01:05.840 ,2,0,0.,12.0,0.,12.0,0.,12.0,0.,12.0
1979-07-11 19:01:17.840 ,2,0,1.,12.0,0.,12.0,0.,12.0,0.,12.0
1979-07-11 19:01:29.840 ,2,0,2.,12.0,0.,12.0,0.,12.0,0.,12.0
1979-07-11 19:01:41.840 ,3,0,0.,12.0,0.,12.0,0.,12.0,0.,12.0
1979-07-11 19:01:53.840 ,3,0,0.,12.0,0.,12.0,0.,12.0,0.,12.0
1979-07-11 19:02:05.840 ,3,0,1.,12.0,0.,12.0,0.,12.0,0.,12.0
1979-07-11 19:02:17.840 ,3,0,0.,12.0,0.,12.0,0.,12.0,0.,12.0
1979-07-11 19:02:29.840 ,4,0,1.,12.0,0.,12.0,0.,12.0,0.,12.0
1979-07-11 19:02:41.840 ,4,0,0.,12.0,0.,12.0,0.,12.0,0.,12.0
1979-07-11 19:02:53.840 ,4,0,2.,12.0,0.,12.0,0.,12.0,0.,12.0
1979-07-11 19:03:05.840 ,4,0,3.,12.0,0.,12.0,0.,12.0,0.,12.0
1979-07-11 19:03:17.840 ,5,0,3.,12.0,0.,12.0,0.,12.0,0.,12.0
1979-07-11 19:03:29.840 ,5,0,1.,12.0,0.,12.0,0.,12.0,0.,12.0
1979-07-11 19:03:41.840 ,5,0,1.,12.0,0.,12.0,0.,12.0,0.,12.0
1979-07-11 19:03:53.840 ,5,0,0.,12.0,0.,12.0,0.,12.0,0.,12.0
1979-07-11 19:04:05.840 ,6,0,0.,12.0,0.,12.0,0.,12.0,0.,12.0
1979-07-11 19:04:17.840 ,6,0,2.,12.0,0.,12.0,0.,12.0,0.,12.0
1979-07-11 19:04:29.840 ,6,0,0.,12.0,0.,12.0,0.,12.0,0.,12.0
1979-07-11 19:04:41.840 ,6,0,1.,12.0,0.,12.0,0.,12.0,0.,12.0
1979-07-11 19:04:53.840 ,7,0,1.,12.0,0.,12.0,0.,12.0,0.,12.0
1979-07-11 19:05:05.840 ,7,0,0.,12.0,0.,12.0,0.,12.0,0.,12.0
1979-07-11 19:05:17.840 ,7,0,0.,12.0,0.,12.0,0.,12.0,0.,12.0
1979-07-11 19:05:29.840 ,7,0,0.,12.0,0.,12.0,0.,12.0,0.,12.0
1979-07-11 19:05:41.840 ,7,0,0.,12.0,0.,12.0,0.,12.0,0.,12.0
1979-07-11 19:05:53.840 ,7,0,0.,12.0,0.,12.0,0.,12.0,0.,12.0
1979-07-11 19:06:05.840 ,7,0,0.,12.0,0.,12.0,0.,12.0,0.,12.0
1979-07-11 19:06:17.840 ,7,0,0.,12.0,0.,12.0,0.,12.0,0.,12.0
1979-07-11 19:06:29.840 ,6,0,0.,12.0,0.,12.0,0.,12.0,0.,12.0
1979-07-11 19:06:41.840 ,6,0,1.,12.0,0.,12.0,0.,12.0,0.,12.0
1979-07-11 19:06:53.840 ,6,0,0.,12.0,0.,12.0,0.,12.0,0.,12.0
1979-07-11 19:07:05.840 ,6,0,1.,12.0,0.,12.0,0.,12.0,0.,12.0
1979-07-11 19:07:17.840 ,5,0,2.,12.0,0.,12.0,0.,12.0,0.,12.0
1979-07-11 19:07:29.840 ,5,0,1.,12.0,0.,12.0,0.,12.0,0.,12.0
1979-07-11 19:07:41.840 ,5,0,2.,12.0,0.,12.0,0.,12.0,0.,12.0
1979-07-11 19:07:53.840 ,5,0,2.,12.0,0.,12.0,0.,12.0,0.,12.0
1979-07-11 19:08:53.840 ,0,0,1.,12.0,0.,12.0,0.,12.0,0.,12.0
1979-07-11 19:09:05.840 ,0,0,1.,12.0,0.,12.0,0.,12.0,0.,12.0
1979-07-11 19:09:17.840 ,0,0,1.,12.0,0.,12.0,0.,12.0,0.,12.0
1979-07-11 19:09:29.840 ,0,0,1.,12.0,0.,12.0,0.,12.0,0.,12.0
1979-07-11 19:09:41.920 ,2,0,2.,12.0,0.,12.0,0.,12.0,0.,12.0
1979-07-11 19:09:53.920 ,2,0,0.,12.0,0.,12.0,0.,12.0,0.,12.0
1979-07-11 19:10:05.920 ,2,0,0.,12.0,0.,12.0,0.,12.0,0.,12.0
1979-07-11 19:10:17.920 ,2,0,0.,12.0,0.,12.0,0.,12.0,0.,12.0
1979-07-11 19:10:29.920 ,1,0,2.,12.0,0.,12.0,0.,12.0,0.,12.0
1979-07-11 19:10:41.920 ,1,0,0.,12.0,0.,12.0,0.,12.0,0.,12.0
1979-07-11 19:10:53.920 ,1,0,1.,12.0,0.,12.0,0.,12.0,0.,12.0
1979-07-11 19:11:05.920 ,1,0,1.,12.0,0.,12.0,0.,12.0,0.,12.0
1979-07-11 19:11:17.920 ,0,0,0.,12.0,0.,12.0,0.,12.0,0.,12.0
1979-07-11 19:11:29.920 ,0,0,0.,12.0,0.,12.0,0.,12.0,0.,12.0
1979-07-11 19:11:41.920 ,0,0,0.,12.0,0.,12.0,0.,12.0,0.,12.0
1979-07-11 19:11:53.920 ,0,0,1.,12.0,0.,12.0,0.,12.0,0.,12.0
1979-07-11 19:12:05.920 ,0,0,1.,12.0,0.,12.0,0.,12.0,0.,12.0
1979-07-11 19:12:17.920 ,0,0,0.,12.0,0.,12.0,0.,12.0,0.,12.0
1979-07-11 19:12:29.920 ,0,0,0.,12.0,0.,12.0,0.,12.0,0.,12.0
1979-07-11 19:12:41.920 ,0,0,0.,12.0,0.,12.0,0.,12.0,0.,12.0
1979-07-11 19:12:53.920 ,1,0,0.,12.0,0.,12.0,0.,12.0,0.,12.0
1979-07-11 19:13:05.920 ,1,0,0.,12.0,0.,12.0,0.,12.0,0.,12.0
1979-07-11 19:13:17.920 ,1,0,0.,12.0,0.,12.0,0.,12.0,0.,12.0
1979-07-11 19:13:29.920 ,1,0,1.,12.0,0.,12.0,0.,12.0,0.,12.0
1979-07-11 19:13:41.920 ,2,0,0.,12.0,0.,12.0,0.,12.0,0.,12.0
1979-07-11 19:13:53.920 ,2,0,1.,12.0,0.,12.0,0.,12.0,0.,12.0
1979-07-11 19:14:05.920 ,2,0,1.,12.0,0.,12.0,0.,12.0,0.,12.0
1979-07-11 19:14:17.920 ,2,0,3.,12.0,0.,12.0,0.,12.0,0.,12.0
1979-07-11 19:14:29.920 ,3,0,0.,12.0,0.,12.0,0.,12.0,0.,12.0
1979-07-11 19:14:41.920 ,3,0,0.,12.0,0.,12.0,0.,12.0,0.,12.0
1979-07-11 19:14:53.920 ,3,0,0.,12.0,0.,12.0,0.,12.0,0.,12.0
1979-07-11 19:15:05.920 ,3,0,0.,12.0,0.,12.0,0.,12.0,0.,12.0
1979-07-11 19:15:17.920 ,4,0,1.,12.0,0.,12.0,0.,12.0,0.,12.0
1979-07-11 19:15:29.920 ,4,0,1.,12.0,0.,12.0,0.,12.0,0.,12.0
1979-07-11 19:15:41.920 ,4,0,0.,12.0,0.,12.0,0.,12.0,0.,12.0
1979-07-11 19:15:53.920 ,4,0,1.,12.0,0.,12.0,0.,12.0,0.,12.0
1979-07-11 19:16:05.920 ,5,0,0.,12.0,0.,12.0,0.,12.0,0.,12.0
1979-07-11 19:16:17.920 ,5,0,0.,12.0,0.,12.0,0.,12.0,0.,12.0
1979-07-11 19:16:29.920 ,5,0,0.,12.0,0.,12.0,0.,12.0,0.,12.0
1979-07-11 19:16:41.920 ,5,0,4.,12.0,0.,12.0,0.,12.0,0.,12.0
1979-07-11 19:16:53.920 ,6,0,1.,12.0,0.,12.0,0.,12.0,0.,12.0
1979-07-11 19:17:05.920 ,6,0,0.,12.0,0.,12.0,0.,12.0,0.,12.0
1979-07-11 19:17:17.920 ,6,0,0.,12.0,0.,12.0,0.,12.0,0.,12.0
1979-07-11 19:17:29.920 ,6,0,0.,12.0,0.,12.0,0.,12.0,0.,12.0
1979-07-11 19:17:41.920 ,7,0,0.,12.0,0.,12.0,0.,12.0,0.,12.0
1979-07-11 19:17:53.920 ,7,0,0.,12.0,0.,12.0,0.,12.0,0.,12.0
1979-07-11 19:18:05.920 ,7,0,0.,12.0,0.,12.0,0.,12.0,0.,12.0
1979-07-11 19:18:17.920 ,7,0,0.,12.0,0.,12.0,0.,12.0,0.,12.0
1979-07-11 19:18:29.920 ,7,0,0.,12.0,0.,12.0,0.,12.0,0.,12.0